sat.trackr.live / text

‹ back to catalog

STARLINK-4213

NORAD 52872 · 2022-062AU

PAYLOAD ACTIVE UNKNOWN

§ Identity

Operator
Country
US
Launch date
2022-06-17
Launch site
AFETR
Launch vehicle
Mass (kg)
RCS (m²)

Purposes: comms

External: N2YO · Heavens-Above · Gunter

§ Orbital elements

Epoch: 2026-05-25T00:14:18.727872Z

Period
95.44 min
Inclination
53.2142°
Eccentricity
0.0001482
Mean motion
15.08847368 rev/d
Perigee alt
538.7 km
Apogee alt
540.7 km
Semi-major
6,917.9 km
B*
-4.1035e-5
RAAN
31.4782°
Arg perigee
98.2409°
Mean anomaly
261.8752°
Rev number
21,758

§ Raw data

STARLINK-42131 52872U 22062AU  26145.00993898 -.00000941  00000+0 -41035-4 0  99922 52872  53.2142  31.4782 0001482  98.2409 261.8752 15.08847368217589

JSON: /api/v1/satellites/52872 · /tle

For live sub-satellite position, see the globe view (requires WebGL).

§ Visibility from observer

Set your observer location to see the next 7 days of passes ≥ 10°. The values pass through the URL so the page stays shareable.

No JS? Fill the form by hand. The geolocation button needs JavaScript.